Find Starlink 32033

NORAD ID: 60144 Int'l Des: 2024-120 Owner: SPXS Country: US Constellation: starlink operational
LEOCIRCULAR

Current View

Loading 3D Globe...

About Starlink 32033

Starlink 32033 (NORAD 60144) is a starlink constellation satellite (v2 mini) launched Jun 27, 2024 by SPXS of US. It operates in LEO, CIRCULAR orbit with a mass of 730.00 kg.

Upcoming Passes

Passes for default location (London). Set your location on the main map for personalized predictions.

Altitude History

Loading altitude history...

Two-Line Element Set

1 60144U 24120K 26265.31258176 -.00000176 00000-0 59312-5 0 9998
2 60144 53.1589 123.5426 0001248 94.8616 265.2529 15.34388446126523
Epoch: Sep 22, 2026 • Age: 28 hours

Current Status

Altitude 464.6 km
Apogee / Perigee N/A
Velocity 7.64 km/s
Sub-Earth Point 33.80°N, 31.86°W
Launch Date Jun 27, 2024
Age 2.2 years
Type internet

Technical Details

Classification Payload
Mass 730.00 kg
Dry Mass 700.00 kg
Length 0.30 m
Span 29.00 m
Shape ? Box + pan
Manufacturer SPXS
Bus Type Starlink V2M
Phase Status In Orbit
Owner/State SPXS/US

Most Searched